This is the latest recevied weather packets stored in our database for station/object E20YUC-1. If no packets are shown the sender has not sent any weather packets the latest 10 day(s).
| Time | Temp. | Humidity | Pressure | Rain* | Wind** | Luminosity | Snow |
|---|---|---|---|---|---|---|---|
| 1777293136 | 34.44° C | 57% | 993.9 hPa | 0 mm | 0 m/s | - | - |
| 1777292834 | 34.44° C | 56% | 993.9 hPa | 0 mm | 0.89 m/s, 22° | - | - |
| 1777292534 | 34.44° C | 56% | 993.7 hPa | 0 mm | 0 m/s | - | - |
| 1777292234 | 34.44° C | 56% | 993.5 hPa | 0 mm | 0 m/s | - | - |
| 1777291934 | 35° C | 56% | 993.4 hPa | 0 mm | 0 m/s | - | - |
| 1777291636 | 35° C | 56% | 993.2 hPa | 0 mm | 0 m/s | - | - |
| 1777291334 | 35° C | 56% | 993 hPa | 0 mm | 0.45 m/s, 22° | - | - |
| 1777290734 | 35.56° C | 55% | 993 hPa | 0 mm | 3.13 m/s, 90° | - | - |
| 1777290433 | 35.56° C | 54% | 992.9 hPa | 0 mm | 0.89 m/s, 22° | - | - |
| 1777290141 | 35.56° C | 54% | 993 hPa | 0 mm | 0.89 m/s, 90° | - | - |
| 1777289833 | 36.11° C | 53% | 992.9 hPa | 0 mm | 0 m/s | - | - |
| 1777289534 | 36.11° C | 52% | 993.1 hPa | 0 mm | 0.89 m/s, 180° | - | - |
| 1777288933 | 36.67° C | 50% | 992.8 hPa | 0 mm | 0.89 m/s, 22° | - | - |
| 1777288635 | 36.67° C | 50% | 992.9 hPa | 0 mm | 0 m/s | - | - |
| 1777288333 | 36.67° C | 49% | 993 hPa | 0 mm | 3.13 m/s, 22° | - | - |
| 1777288033 | 36.67° C | 49% | 992.9 hPa | 0 mm | 1.79 m/s, 90° | - | - |
| 1777287733 | 37.22° C | 49% | 992.7 hPa | 0 mm | 0.89 m/s, 90° | - | - |
| 1777287433 | 37.22° C | 49% | 992.7 hPa | 0 mm | 2.24 m/s, 22° | - | - |
| 1777287135 | 37.22° C | 49% | 992.7 hPa | 0 mm | 0 m/s | - | - |
| 1777286833 | 37.22° C | 50% | 992.7 hPa | 0 mm | 0.89 m/s, 90° | - | - |
| 1777286534 | 37.22° C | 50% | 992.7 hPa | 0 mm | 1.79 m/s, 22° | - | - |
| 1777285933 | 37.78° C | 50% | 992.5 hPa | 0 mm | 0 m/s | - | - |
| 1777285634 | 37.78° C | 50% | 992.6 hPa | 0 mm | 0.89 m/s, 22° | - | - |
| 1777285333 | 37.78° C | 50% | 992.5 hPa | 0 mm | 0 m/s | - | - |
| 1777285033 | 37.78° C | 50% | 992.4 hPa | 0 mm | 0 m/s | - | - |
* Rain latest hour (hover to see other rain measurements)
** Current wind speed in m/s (hover to see current wind gust speed)